Other Surface Observations
Issued by NWS

Home | Current Version | Previous Version | Text Only | Print | Product List | Glossary On
Versions: 1 2 3 4 5 6 7 8 9 10 11 12 13 14 15 16 17 18 19 20 21 22 23 24 25 26 27 28 29 30 31 32 33 34 35 36 37 38 39 40 41 42 43 44 45 46 47 48 49 50
000
SXUS52 KTAE 050318
OSOTAE
OSOTAE
North Florida/South Alabama/Southwest Georgia Weather Roundup
National Weather Service Tallahassee Florida
1100 PM EDT MON MAY 04 2015

Note: "fair" indicates few or no clouds below 12,000 feet with no
significant weather and/or obstructions to visibility.

!FLZ017-115-028-034-025-050400
...North Florida...

CITY           SKY/WX    TMP DP  RH WIND       PRES   REMARKS
TALLAHASSEE    PTCLDY    72  58  61 E6        30.23R
APALACHICOLA   MOCLDY    69  60  73 CALM      30.22R
PERRY          CLEAR     69  56  61 CALM      30.25R
CROSS CITY       N/A     68  55  63 CALM      30.24R
JACKSONVILLE   MOCLDY    66  62  87 N3        30.27R
$$

!FLZ112-006-005-002-011-050400
...Florida Panhandle...

CITY           SKY/WX    TMP DP  RH WIND       PRES   REMARKS
MARIANNA       MOCLDY    72  56  57 E3        30.22R
BONIFAY        NOT AVBL
PANAMA CITY NW FAIR      66  62  87 CALM      30.21R
TYNDALL AFB    MOCLDY    67  63  87 CALM      30.22R
TYND DRONE APT MOCLDY    67  64  92 E1        30.21R
DE FUNIAK SPR  FAIR      63  57  81 CALM      30.23R
EGLIN AFB      PTCLDY    65  60  82 N1        30.21R
DESTIN         CLEAR     67  61  81 CALM      30.21R
HURLBURT       CLEAR     64  60  85 NW2       30.20R
CRESTVIEW      CLEAR     60  56  86 CALM      30.24R
PENSACOLA      CLEAR     69  61  75 SE5       30.21R
$$

!ALZ063-066-050400
...South Alabama...

CITY           SKY/WX    TMP DP  RH WIND       PRES   REMARKS
DOTHAN         CLEAR     64  56  75 E6        30.26R
OZARK CAIRNS   CLEAR     68  51  55 W2        30.23R
FT RUCKER HELI CLEAR     62  56  80 SW3       30.23R
RUCKER HELI 3  FAIR      69  53  56 SW3       30.25R
RUCKER HELI 2  FAIR      63  56  78 CALM      30.23R
FLORALA APT    CLEAR     63  59  87 CALM      30.25R
ANDALUSIA      PTCLDY    68  58  70 CALM      30.23R
TROY           CLEAR     63  56  78 CALM      30.25R
EUFALA         FAIR      60  57  89 CALM      30.24S
MOBILE         CLEAR     68  61  78 E5        30.22R
$$

!GAZ120>161-050400
...Southwest and South Central Georgia...

CITY           SKY/WX    TMP DP  RH WIND       PRES   REMARKS
THOMASVILLE    FAIR      70  57  64 E6        30.27R
BAINBRIDGE     CLEAR     72  61  68 E5        30.25R
MOODY AFB      NOT AVBL
VALDOSTA       CLEAR     68  56  65 E5        30.27R
MOULTRIE       CLEAR     70  54  56 CALM      30.27S
BLAKELY        PTCLDY    66  59  77 CALM      30.25S
ALBANY         CLEAR     70  55  59 E6        30.28R
TIFTON         FAIR      68  52  57 CALM      30.28R
FITZGERALD     FAIR      70  52  53 E6        30.32R
CORDELE        FAIR      70  55  57 SE6       30.29S
AMERICUS       FAIR      66  55  68 SE3       30.30R
HOMERVILLE     FAIR      66  57  72 CALM      30.29R
$$

!GMZ750-755-770-775-050400
...Coastal and Buoy Obs...

STATION/POSITION TIME  TEMP    WIND        PRES    VSBY  WAVE
                       AIR SEA DIR/SP/G                  HT/PER
                 (UTC) (F)     (DEG/KT/KT) (MB)    (MI)  (FT/S)
KEATON BEACH     0300   68      70/  8/  9 1023.9R
CEDAR KEY        0300   71      70/ 12/ 14 1023.9R
C TOWER          0300   74      70/  8/  8 1022.9R
APALACHICOLA BUO 0250   75 75   40/ 16/ 17 1022.1R         3/ 6
PANAMA CITY BUOY 0250   74 75   80/ 10/ 12 1022.6R         4/ 8
MOBILE BUOY      0250   74 75  110/ 17/ 21 1021.9R         6/ 6
ORANGE BCH AL BU 0250   74 75  120/ 12/ 14 1022.0R         4/ 7
$$



USA.gov is the U.S. government's official web portal to all federal, state and local government web resources and services.